Home   Weather   Helsinki   Past weeks
Flag for Finland

Past Weather in Helsinki, Finland — Yesterday and Last 2 Weeks

Now
73 °F

Passing clouds.


Feels Like: 77 °F
Forecast: 72 / 56 °F
Wind: 12 mph from North

Location: Helsinki-Vantaa

Current Time: Jul 18, 2019 at 6:36:08 pm

Latest Report: Jul 18, 2019 at 5:50 pm


Visibility: N/A

Pressure: 29.80 "Hg

Humidity: 47%

Dew Point: 52 °F

Location of HelsinkiLocation

Past Weather in Helsinki — Graph

°F

Helsinki Temperature Yesterday

Maximum temperature yesterday: 72 °F (at 12:50 pm)
Minimum temperature yesterday: 54 °F (at 3:20 am)
Average temperature yesterday: 62 °F

High & Low Weather Summary for the Past Weeks

 TemperatureHumidityPressure
High73 °F (Jul 18, 2:20 pm)100% (Jul 5, 5:20 am)29.89 "Hg (Jul 5, 5:20 am)
Low39 °F (Jul 12, 3:50 am)26% (Jul 12, 4:50 pm)29.33 "Hg (Jul 5, 9:20 am)
Average58 °F73%29.69 "Hg
* Reported Jul 3 4:20 pm — Jul 18 4:50 pm, Helsinki. Weather by CustomWeather, © 2019

Note: Actual official high and low records may vary slightly from our data, if they occured in-between our weather recording intervals... More about our weather records

Advertising

Helsinki Weather History for the Previous 24 Hours

Scroll right to see more
 ConditionsComfort  
Time TempWeatherWind HumidityBarometerVisibility
4:50 pm
Thu, Jul 18
73 °FPassing clouds.14 mph41%29.80 "HgN/A
4:20 pm73 °FPassing clouds.10 mph41%29.80 "HgN/A
3:50 pm73 °FSunny.12 mph47%29.80 "Hg10 mi
3:20 pm73 °FPassing clouds.15 mph44%29.80 "HgN/A
2:50 pm72 °FSunny.14 mph47%29.80 "Hg10 mi
2:20 pm73 °FPassing clouds.14 mph47%29.80 "HgN/A
1:50 pm72 °FPassing clouds.13 mph50%29.80 "HgN/A
1:20 pm72 °FPassing clouds.10 mph50%29.83 "HgN/A
12:50 pm72 °FPassing clouds.10 mph50%29.83 "HgN/A
12:20 pm70 °FPassing clouds.10 mph53%29.83 "HgN/A
11:50 am70 °FPassing clouds.9 mph57%29.83 "HgN/A
11:20 am68 °FPassing clouds.10 mph60%29.83 "HgN/A
10:50 am68 °FPassing clouds.10 mph60%29.83 "HgN/A
10:20 am66 °FPassing clouds.9 mph68%29.83 "HgN/A
9:50 am64 °FPassing clouds.9 mph68%29.83 "HgN/A
9:20 am64 °FPassing clouds.9 mph68%29.83 "HgN/A
8:50 am63 °FPassing clouds.8 mph77%29.83 "HgN/A
8:20 am59 °FSunny.9 mph82%29.83 "Hg10 mi
7:50 am57 °FSunny.9 mph88%29.83 "Hg10 mi
7:20 am55 °FSunny.8 mph94%29.83 "Hg10 mi
6:50 am55 °FSunny.7 mph88%29.83 "Hg10 mi
6:20 am54 °FSunny.6 mph94%29.83 "Hg10 mi
5:50 am52 °FSunny.5 mph94%29.83 "Hg10 mi
5:20 am50 °FPassing clouds.5 mph100%29.83 "HgN/A
4:50 am50 °FFog.3 mph100%29.83 "HgN/A
4:20 am50 °FFog.5 mph94%29.83 "HgN/A
3:50 am52 °FFog.3 mph100%29.83 "HgN/A
3:20 am52 °FFog.3 mph100%29.83 "HgN/A
2:50 am52 °FPassing clouds.3 mph100%29.83 "HgN/A
2:20 am54 °FPassing clouds.3 mph94%29.83 "HgN/A
1:50 am55 °FClear.1 mph88%29.83 "Hg10 mi
1:20 am54 °FClear.3 mph94%29.83 "Hg10 mi
12:50 am52 °FClear.6 mph100%29.83 "Hg10 mi
12:20 am57 °FClear.5 mph88%29.83 "Hg10 mi
11:50 pm
Wed, Jul 17
57 °FClear.5 mph88%29.83 "Hg10 mi
11:20 pm59 °FClear.6 mph82%29.83 "Hg10 mi
10:50 pm59 °FClear.7 mph94%29.83 "Hg10 mi
10:20 pm59 °FPassing clouds.9 mph94%29.83 "HgN/A
9:50 pm61 °FPassing clouds.5 mph83%29.83 "HgN/A
9:20 pm61 °FSunny.3 mph83%29.83 "Hg10 mi
8:50 pm63 °FPassing clouds.3 mph77%29.83 "HgN/A
8:20 pm64 °FSunny.3 mph73%29.83 "Hg10 mi
7:50 pm66 °FPassing clouds.3 mph64%29.83 "HgN/A
7:20 pm66 °FPassing clouds.6 mph64%29.83 "HgN/A
6:50 pm63 °FPassing clouds.5 mph83%29.83 "HgN/A
6:20 pm63 °FScattered showers. Scattered clouds.3 mph77%29.83 "HgN/A
Weather by CustomWeather, © 2019

See weather overview